Weather Service Report


156 
ASUS44 KOUN 250200
RWROK 

WEATHER ROUNDUP FOR OKLAHOMA
NATIONAL WEATHER SERVICE NORMAN OK
800 PM CST TUE JAN 24 2017

NOTE: "FAIR" INDICATES FEW OR NO CLOUDS BELOW 12,000 FEET WITH NO
      SIGNIFICANT WEATHER AND/OR OBSTRUCTIONS TO VISIBILITY.

OKZ001>007-009>012-014-015-017-250300-
NORTHWEST OKLAHOMA AND THE PANHANDLE
  
CITY           SKY/WX    TMP DP  RH WIND       PRES   REMARKS
GAGE           CLEAR     39  31  72 N12       29.69R WCI  32          
GUYMON         CLEAR     36  29  75 N17       29.73R WCI  26          
$$

OKZ016-021>023-033>039-044-045-250300-
SOUTHWEST OKLAHOMA
  
CITY           SKY/WX    TMP DP  RH WIND       PRES   REMARKS
LAWTON/REGL    CLEAR     53  33  46 W6        29.65R                  
LAWTON/FT SILL CLEAR     58  35  41 W7        29.64R                  
FREDERICK      CLEAR     56  35  45 NW12      29.65R                  
CLINTON        CLEAR     54  16  22 W21       29.64R                  
HOBART         CLEAR     55  25  31 W16       29.65R                  
$$

OKZ018>020-024>031-250300-
CENTRAL OKLAHOMA
  
CITY           SKY/WX    TMP DP  RH WIND       PRES   REMARKS
OKLAHOMA CITY  PTCLDY    53  29  39 SW6       29.62R                  
OKC/WILEY POST CLEAR     58  30  34 SW10      29.62R                  
STILLWATER     CLEAR     58  35  42 NW17G25   29.57R                  
GUTHRIE        CLEAR     58  31  35 W9        29.59R                  
$$

OKZ008-013-054>072-250300-
NORTHEAST OKLAHOMA
  
CITY           SKY/WX    TMP DP  RH WIND       PRES   REMARKS
TULSA          PTCLDY    66  38  35 SW8       29.55R                  
TULSA/JONES    CLEAR     66  38  35 SW9       29.56R                  
PONCA CITY     CLEAR     45  35  68 NW9       29.61R                  
BARTLESVILLE   CLEAR     65  30  27 SW10G16   29.53R                  
MUSKOGEE       CLOUDY    60  48  64 S8        29.57S                  
$$

OKZ032-040>043-046>053-073>077-250300-
SOUTH CENTRAL/SOUTHEAST OKLAHOMA
  
CITY           SKY/WX    TMP DP  RH WIND       PRES   REMARKS
MCALESTER      CLOUDY    67  49  52 S8        29.60R                  
$$

  

Return to Home page


Western Regional Climate Center, wrcc@dri.edu